Wind_Speed
16 15 14 13 12 12 12 12 13 13 13 13 14 14 14 16 18 20 22 20 17 17 15 11 14 19 19 18 19 20 20 20 21 21 22 23 24 25 25 24 25 26 27 28 28 29 29 30 30 31 32 32 33 33 33 34 34 34 34 35 35 36 35 35 35 36 37 38 40 42 43 43 44 45
17 16 17 15 14 14 13 13 13 12 12 12 13 14 14 15 17 19 20 20 20 20 18 15 15 19 22 22 21 21 22 22 22 22 23 24 24 25 26 26 26 28 29 30 30 30 29 30 30 31 32 33 34 34 35 35 35 35 35 35 35 36 36 36 36 36 37 38 38 40 42 43 44 45
17 16 16 17 16 15 14 12 11 10 10 11 12 14 14 15 17 18 19 20 20 20 22 22 21 23 24 24 23 22 23 26 27 26 25 25 25 25 25 26 26 27 29 30 30 31 31 31 30 31 32 33 34 34 35 36 36 37 36 36 36 36 37 37 37 37 38 38 39 39 40 42 44 45
18 16 17 18 17 16 13 10 9 10 10 11 12 14 15 15 16 18 19 20 20 20 22 25 26 27 27 26 27 25 24 25 27 28 27 27 27 27 27 28 28 27 28 29 30 30 30 31 31 31 31 33 34 35 35 36 37 38 38 38 37 38 38 38 38 38 39 39 40 40 40 41 42 44
20 19 18 17 16 14 11 9 10 11 11 12 12 13 14 15 17 19 19 20 21 21 22 24 27 29 29 30 30 29 27 27 28 29 29 29 29 29 29 30 30 30 30 30 30 31 31 31 32 32 33 34 35 36 36 36 37 38 39 39 39 38 39 39 39 39 40 40 41 41 41 41 41 42
20 19 17 16 14 13 11 11 11 12 13 13 13 14 15 16 17 18 19 20 21 20 20 23 26 28 29 30 30 30 31 31 31 32 31 30 30 31 32 33 33 33 33 32 31 31 31 31 32 34 35 36 37 38 39 38 38 39 39 40 40 40 40 40 40 40 40 41 42 42 43 43 43 43
20 18 17 15 14 13 13 13 13 14 14 14 14 14 16 17 17 19 21 21 20 19 20 23 27 28 26 27 30 31 32 31 31 31 31 30 30 31 33 33 33 33 34 34 33 32 32 31 32 35 37 37 38 39 40 40 39 39 40 41 41 41 41 41 42 42 41 41 41 42 44 44 44 45
21 19 17 15 14 14 14 15 15 15 15 14 15 15 16 18 18 20 22 21 20 22 24 27 31 31 27 27 29 29 29 29 29 29 28 28 28 29 31 32 32 33 34 34 34 33 33 34 34 34 36 37 37 39 40 40 40 40 40 41 42 42 42 42 43 43 43 42 42 42 43 45 46 46
20 19 17 15 15 15 15 15 15 15 15 15 15 16 17 18 21 21 21 22 24 27 29 30 33 33 30 28 27 27 27 27 27 27 27 27 27 28 30 31 32 34 35 34 33 32 33 35 37 36 36 36 36 37 38 40 40 40 40 40 41 41 41 42 43 44 45 45 45 43 43 44 46 47
20 19 18 16 15 17 17 17 16 14 15 16 17 18 18 19 22 23 23 25 28 30 31 32 33 32 32 30 29 28 28 28 27 27 27 27 27 28 30 32 33 34 35 35 34 34 34 36 39 39 39 38 36 35 36 39 40 40 40 40 40 41 40 40 42 44 45 47 48 47 45 45 45 47
21 20 20 18 17 18 19 19 17 16 17 19 20 20 21 21 23 26 27 28 30 32 33 35 33 30 30 31 30 29 28 28 27 27 28 28 27 28 30 31 32 33 34 35 35 35 36 37 38 38 37 36 35 34 35 37 39 41 41 40 41 41 41 41 41 43 45 47 49 50 49 47 46 47
24 23 23 21 20 20 21 21 19 19 21 23 24 24 25 25 27 29 31 31 32 33 34 36 35 31 30 31 30 29 29 28 27 27 29 31 31 30 31 31 31 32 34 35 36 35 36 37 36 35 35 34 33 34 34 35 38 40 41 41 40 40 41 41 42 43 45 47 50 52 53 51 48 47
29 27 25 24 24 23 23 23 23 23 24 26 27 28 29 31 31 32 33 33 32 32 34 36 36 32 30 30 31 31 30 29 29 29 31 33 33 33 33 32 32 32 33 34 35 34 33 34 34 34 35 35 35 36 36 35 36 37 39 40 40 39 40 42 43 45 46 48 50 53 55 54 51 49
31 29 28 26 26 25 25 25 26 26 26 27 29 31 33 35 34 34 33 31 29 30 35 37 35 32 30 29 30 32 31 30 30 31 31 33 33 35 35 34 32 32 32 33 33 34 33 33 34 35 36 37 37 37 36 34 33 34 35 36 38 39 41 44 47 49 50 51 52 54 56 57 55 51
34 32 30 29 28 27 26 27 27 27 27 28 30 32 34 35 36 37 35 31 31 35 39 39 35 31 29 29 30 32 32 31 31 32 33 35 35 36 37 37 35 32 31 32 34 36 35 34 35 36 37 37 36 36 35 33 33 34 34 35 37 40 43 46 49 52 54 55 55 55 57 58 58 54
37 36 34 33 31 29 28 28 28 28 29 31 33 35 35 36 36 36 35 36 38 40 41 38 33 30 31 31 32 32 32 33 34 35 36 36 36 36 37 39 38 35 33 34 36 37 36 35 37 38 37 36 36 36 35 35 35 35 36 37 38 41 44 47 51 56 57 58 58 57 57 58 59 56
37 37 36 34 33 33 32 30 30 30 32 35 37 38 38 40 38 35 35 39 40 40 40 37 32 32 33 33 33 33 33 34 35 35 35 34 35 37 38 40 39 36 34 35 37 39 38 37 39 40 38 37 37 37 36 36 37 37 38 39 41 43 46 50 54 58 60 60 59 58 58 58 59 58
36 36 35 33 34 37 35 30 30 33 36 38 39 40 42 43 41 38 39 40 39 38 38 35 33 34 35 34 35 35 35 36 35 34 33 34 36 37 38 39 38 35 34 35 38 40 40 39 40 40 38 38 38 38 38 38 39 39 39 41 44 47 51 54 57 60 59 58 58 57 57 57 58 58
35 36 36 34 36 39 37 33 33 36 39 40 41 43 43 42 40 40 40 38 37 36 35 34 34 35 35 35 36 37 38 36 33 32 33 35 36 38 39 39 37 34 32 33 36 40 41 40 40 40 39 39 39 39 39 39 40 40 41 43 48 52 55 55 56 58 56 54 54 54 54 55 57 57
33 34 35 38 39 37 35 35 36 37 40 43 45 46 43 40 40 40 38 35 35 35 34 34 35 35 35 36 37 38 37 34 32 33 35 35 36 37 38 38 37 34 32 31 34 40 42 40 41 41 40 40 41 41 41 41 41 41 43 47 51 53 52 51 52 53 51 49 50 50 50 52 55 55
31 33 37 40 38 33 33 35 36 38 40 42 43 43 41 39 38 37 36 35 35 35 36 36 36 35 35 36 36 35 33 31 32 34 34 34 34 36 36 37 37 36 34 33 35 40 42 40 41 42 42 42 42 42 42 42 41 42 46 50 53 50 45 46 48 47 45 44 45 46 46 48 51 52
30 33 34 34 33 34 36 37 38 40 40 39 38 38 38 38 37 36 37 36 36 37 38 38 36 35 34 33 34 33 30 29 31 33 33 32 33 35 36 37 38 38 36 35 36 39 41 41 41 42 44 44 44 43 43 42 42 45 49 52 50 44 40 41 43 42 41 40 41 43 43 44 47 49
28 30 29 29 33 37 39 38 38 39 38 36 35 36 36 37 38 38 38 38 37 37 37 36 36 35 33 32 31 30 28 28 29 30 30 31 33 36 38 39 40 41 39 36 36 39 41 41 41 42 44 46 46 43 42 43 45 47 51 51 46 38 34 36 37 37 37 37 37 38 40 40 43 45
27 28 29 32 36 38 37 36 36 35 34 34 35 35 36 38 38 38 38 37 36 35 34 34 33 33 32 31 30 28 28 28 28 29 30 32 35 38 39 40 41 43 41 37 36 39 41 42 41 39 40 44 46 45 44 45 47 50 51 47 38 29 29 33 33 32 33 32 32 34 36 38 40 43
27 30 32 34 35 34 32 31 32 32 33 34 36 37 38 38 38 37 36 35 34 34 33 32 31 29 29 29 28 28 27 27 28 29 31 34 36 38 39 40 41 42 41 36 35 38 40 39 38 36 36 40 45 47 47 47 49 50 48 41 32 24 25 30 30 29 29 29 28 31 34 37 40 43
29 33 35 33 30 27 27 29 31 33 34 35 36 37 37 36 36 35 34 34 33 32 31 30 29 28 27 27 27 27 27 27 29 31 33 35 36 37 38 39 41 41 39 35 33 35 36 34 32 33 34 39 45 49 50 50 50 49 42 35 30 25 25 29 29 27 27 27 28 29 32 36 39 42
32 35 34 30 27 27 30 32 33 34 34 34 35 35 35 34 34 33 33 32 32 31 30 28 27 27 26 26 26 27 27 28 30 31 33 34 36 37 37 38 38 37 36 33 30 30 30 30 30 32 34 38 45 50 52 51 51 47 38 29 25 24 24 27 28 27 27 28 29 29 31 34 37 41
32 32 30 28 29 32 34 34 33 33 33 33 34 34 33 33 32 32 31 31 30 29 28 27 26 26 26 26 26 27 27 28 30 31 32 33 35 36 36 35 34 32 31 30 27 25 27 28 31 33 35 38 43 49 52 51 49 45 38 29 23 20 21 23 25 26 26 27 28 30 31 31 34 37
29 29 29 30 31 32 33 33 33 33 32 32 31 31 30 30 30 31 30 28 27 25 25 25 25 25 26 26 27 27 27 28 30 31 32 33 34 34 33 32 30 27 26 25 24 23 25 27 30 34 36 38 42 48 51 51 47 41 37 33 26 20 17 18 20 21 23 24 26 29 30 29 30 34
26 27 29 30 31 32 32 33 33 33 32 30 29 29 29 29 29 29 27 25 23 23 23 24 25 26 26 27 27 28 28 29 31 32 32 32 31 30 29 28 26 23 21 21 21 23 25 27 30 33 36 39 43 47 48 48 45 38 34 33 29 23 18 16 17 19 21 23 23 26 28 27 26 29
24 26 28 29 30 31 32 33 33 33 31 30 29 29 28 26 24 23 22 22 22 22 23 24 25 26 27 27 27 27 28 29 30 31 31 29 27 27 26 25 24 22 19 17 19 22 25 27 30 33 35 39 44 45 43 42 40 35 32 31 30 26 22 19 16 16 17 19 19 21 24 25 24 25
24 25 27 29 31 31 32 31 31 31 32 32 31 29 25 22 21 20 20 21 22 22 23 24 25 26 26 26 26 27 27 28 28 28 27 26 24 24 23 24 23 22 19 18 19 22 25 27 29 31 33 36 41 42 40 37 34 31 30 30 28 25 22 21 19 17 16 17 18 18 20 22 22 23
26 27 28 29 30 30 30 30 30 30 30 30 29 27 25 23 22 22 22 22 22 23 24 25 26 26 26 26 26 25 26 25 25 24 24 23 22 22 22 23 23 21 20 20 21 23 25 27 29 30 30 33 37 38 37 35 31 28 28 28 27 24 20 20 20 18 18 19 19 17 16 18 21 21
29 29 29 27 27 28 30 30 28 26 25 25 26 25 23 21 21 23 23 22 23 24 25 25 26 26 26 25 24 24 23 23 21 21 21 21 21 22 23 24 24 22 21 21 23 25 26 27 29 29 28 30 32 33 33 33 31 29 26 25 25 24 21 19 19 19 19 20 19 17 16 18 20 20
30 30 28 27 27 28 28 27 25 24 25 26 26 22 19 18 20 22 23 23 24 25 25 25 25 25 25 24 23 22 21 20 19 19 19 20 21 22 23 24 25 24 22 21 23 25 26 27 30 30 29 30 33 33 32 31 31 30 27 23 21 23 22 20 19 18 17 17 17 16 17 18 18 20
30 30 29 28 27 28 28 28 26 26 26 27 25 19 16 17 20 22 23 23 24 25 25 25 25 24 24 22 21 20 20 19 18 18 19 20 21 22 23 24 24 24 22 20 22 24 24 25 29 32 32 34 37 38 37 36 33 31 30 26 21 21 21 20 19 18 17 16 14 13 17 20 18 18
30 32 32 27 23 26 29 29 27 27 27 26 24 20 19 20 21 23 24 23 23 24 24 24 23 23 22 21 20 19 18 18 18 18 20 21 22 23 24 24 24 24 23 20 20 22 23 24 28 31 33 35 37 39 41 42 37 32 31 30 27 23 21 20 19 17 17 16 14 11 14 19 19 17
31 34 33 26 23 27 31 29 26 26 27 25 21 20 21 22 23 23 24 23 23 23 22 22 22 21 20 19 19 18 18 17 18 19 21 22 22 23 23 24 24 24 23 20 18 20 23 25 26 29 31 33 36 38 41 44 43 36 32 32 31 27 23 21 20 18 16 16 14 11 11 16 17 16
32 32 30 26 25 29 31 29 27 26 26 25 24 23 23 23 22 23 23 23 22 22 21 21 20 19 18 18 18 17 17 18 19 20 22 22 23 23 23 23 23 23 22 20 18 19 22 23 24 26 28 30 33 36 39 42 44 41 36 33 31 27 21 18 17 17 16 15 14 13 15 17 16 16
31 29 28 26 26 28 28 27 27 26 25 25 25 24 23 21 22 22 22 22 22 21 20 19 18 17 17 17 17 17 18 18 20 21 22 22 22 22 22 22 22 22 21 19 19 20 22 22 23 24 26 28 31 34 36 39 41 41 38 32 29 26 21 17 14 15 16 16 14 14 16 18 19 20
31 29 29 27 25 25 25 25 25 25 24 24 25 25 23 21 20 20 20 21 21 20 19 18 17 16 16 16 16 17 18 19 20 21 22 22 21 20 20 20 20 20 19 18 19 21 22 22 23 23 24 26 29 33 36 38 40 41 39 34 28 25 23 19 15 14 15 17 16 15 16 17 19 22
30 28 27 25 24 24 24 24 23 23 23 23 25 26 24 21 20 19 19 20 20 18 17 17 16 15 15 15 16 17 18 19 20 20 20 21 20 19 19 19 19 19 18 17 19 21 22 22 23 22 22 25 29 32 36 38 39 40 41 37 30 25 23 21 18 15 15 17 18 17 16 17 18 19
27 26 24 23 23 23 22 21 21 21 22 21 22 23 22 20 20 19 19 19 19 17 16 15 15 15 15 15 16 18 19 19 19 19 19 20 19 18 17 17 17 18 17 16 18 20 22 22 22 22 23 26 29 31 33 35 36 38 40 39 34 28 24 22 20 18 16 17 18 17 16 17 18 19
23 23 22 21 22 22 22 21 20 20 20 20 20 20 19 18 18 18 18 18 18 16 15 14 14 14 14 15 16 18 18 19 19 19 18 18 18 17 17 16 16 17 17 17 16 17 19 21 22 23 25 27 29 29 31 33 35 36 38 40 37 31 26 22 18 17 16 15 15 15 16 18 19 20
20 21 21 20 21 22 22 21 21 20 19 19 19 19 18 17 17 17 17 17 16 15 14 13 13 13 13 14 16 16 17 18 18 18 18 18 18 17 16 16 16 16 17 18 17 15 16 20 21 22 24 25 26 27 29 32 33 33 35 38 38 35 32 27 20 13 12 13 14 15 15 18 21 21
Wind_Direction
294 294 294 293 290 288 284 278 276 277 277 276 281 286 289 294 300 303 305 307 308 306 303 296 289 292 300 306 307 306 303 298 295 295 294 291 289 287 285 283 281 281 281 281 281 281 280 278 276 274 273 272 270 267 266 264 263 261 258 257 256 257 257 258 258 259 258 257 255 254 252 250 249 247
290 292 294 294 293 292 288 282 278 276 276 281 289 291 291 294 298 302 305 308 310 308 306 304 297 299 304 305 305 304 301 299 298 298 298 296 294 291 287 285 284 282 281 281 282 282 280 278 276 275 275 274 273 271 270 269 267 266 263 261 258 257 256 256 256 256 257 257 257 255 254 252 250 248
284 285 290 293 295 294 292 289 285 281 280 287 292 292 293 297 300 302 304 306 307 306 305 304 302 303 305 304 302 301 299 299 299 298 298 298 296 295 293 292 290 286 283 282 281 281 280 278 275 273 273 273 273 273 273 272 272 271 269 267 264 261 259 257 255 254 254 255 256 256 255 254 251 249
285 284 288 291 293 295 294 291 286 282 282 288 292 294 297 300 302 305 305 304 302 299 300 303 303 305 306 304 302 300 298 297 298 299 300 299 296 294 294 294 292 288 284 281 280 278 277 277 277 275 274 274 273 273 272 272 273 272 272 271 269 266 264 261 258 256 254 254 254 254 255 255 253 250
287 285 287 291 295 297 294 285 281 281 282 286 290 294 297 300 304 305 305 307 305 300 300 303 303 303 303 303 303 303 301 299 298 299 299 298 296 295 295 296 294 290 286 283 280 276 272 271 273 274 274 273 273 272 271 270 271 272 272 272 271 269 267 265 262 259 256 254 254 254 254 254 254 252
285 283 286 291 293 293 288 282 283 284 283 286 290 293 296 300 302 301 303 308 310 307 307 310 309 304 302 301 301 302 302 301 300 299 297 294 293 294 295 295 295 293 291 288 284 279 275 272 270 270 270 271 271 271 271 270 270 270 271 271 271 271 270 269 267 263 258 255 253 253 253 253 253 253
283 282 284 286 286 284 284 286 288 288 286 286 289 293 298 300 299 300 302 306 310 310 313 319 319 312 304 299 298 298 298 298 297 297 295 292 292 292 291 292 292 292 292 291 288 285 284 281 276 271 270 270 271 270 270 270 269 269 269 269 270 271 271 271 270 268 264 259 255 252 252 252 251 252
280 280 280 281 282 281 282 286 291 293 288 286 290 295 297 298 299 301 301 300 306 312 316 321 321 316 307 301 298 296 295 295 294 293 293 294 293 291 290 290 289 289 288 288 288 288 287 285 282 277 275 274 273 270 268 268 268 267 266 267 268 270 271 272 272 271 270 266 261 256 252 251 250 250
276 276 275 276 279 279 279 282 287 290 285 283 290 294 294 296 299 301 299 297 301 309 313 316 317 314 309 305 302 298 296 295 292 290 291 293 294 293 291 290 289 289 289 289 290 290 288 287 286 284 282 280 278 273 268 265 265 264 264 265 266 268 269 270 271 272 273 271 267 261 256 252 250 248
271 269 267 268 274 279 279 278 280 280 276 277 284 289 293 296 297 299 301 300 302 307 311 314 316 315 310 304 300 298 296 293 290 288 287 288 290 291 291 290 289 288 287 288 289 289 289 289 290 290 289 287 284 279 270 264 262 262 262 263 264 265 265 266 267 269 270 270 269 266 260 254 250 248
266 265 264 266 273 277 276 274 274 272 271 278 286 291 294 296 296 297 300 301 302 303 306 311 312 310 306 302 298 295 292 289 288 288 287 287 288 289 290 289 288 289 289 290 290 289 289 289 290 292 291 289 287 282 275 267 263 261 261 262 263 264 264 264 265 266 266 267 267 267 264 258 252 248
265 264 263 266 270 274 275 276 280 283 284 288 291 292 295 298 299 298 298 298 298 297 302 308 308 305 304 302 300 296 292 289 288 288 289 290 290 291 290 288 288 291 293 294 294 292 290 289 290 291 291 290 288 284 279 273 267 263 262 262 263 265 267 266 266 265 264 263 263 264 264 261 255 249
261 260 260 264 268 272 277 280 284 289 290 289 288 288 292 297 300 300 299 297 296 296 301 306 307 304 302 302 299 297 293 289 288 288 288 289 291 291 288 287 289 293 295 296 295 293 291 291 293 295 294 292 289 286 283 279 274 268 264 264 266 270 273 274 273 271 267 263 261 261 262 261 258 252
256 257 259 262 266 270 274 277 282 286 289 290 290 291 292 295 298 300 300 299 299 302 306 308 307 304 302 300 299 298 295 290 289 288 287 288 289 289 287 286 289 294 296 296 294 293 293 294 295 295 295 294 293 292 290 288 284 279 274 273 276 278 280 280 280 277 273 268 262 259 259 259 258 254
255 255 257 261 266 268 269 273 280 285 288 291 292 293 294 296 297 298 301 304 306 307 308 308 307 307 306 303 301 300 298 293 289 287 286 287 288 287 286 288 292 295 296 295 294 294 296 297 296 294 295 297 298 297 295 293 291 286 282 280 281 281 281 281 281 280 277 271 265 261 258 257 257 254
260 258 260 263 266 268 270 274 278 283 286 289 291 293 294 295 296 298 303 307 307 306 307 306 304 305 304 302 301 299 297 294 291 287 286 286 286 286 287 291 295 298 297 295 294 294 297 299 296 295 297 300 300 297 296 296 295 291 287 285 284 283 282 282 282 282 278 273 268 263 258 256 255 254
265 263 266 269 269 271 273 274 277 281 286 289 291 294 296 296 296 299 303 305 303 303 303 302 301 302 300 298 297 297 295 295 292 288 286 285 285 288 291 294 297 299 298 296 296 296 298 299 297 298 302 303 301 300 300 301 299 296 293 290 287 285 284 285 285 282 278 274 269 264 259 256 254 252
265 264 268 271 273 273 273 273 276 281 284 287 290 293 294 294 293 297 301 303 302 300 299 297 298 300 299 297 297 297 296 295 292 287 286 287 289 292 295 296 297 298 298 297 297 298 300 300 299 302 306 305 303 304 304 303 300 297 294 292 290 289 289 288 285 280 276 272 268 264 260 256 253 251
265 265 267 272 275 274 272 271 273 278 283 287 290 293 293 292 292 297 301 302 302 300 296 295 297 297 296 296 297 297 297 295 292 290 290 293 296 298 297 296 297 298 298 298 299 301 302 302 303 306 308 307 306 307 306 304 301 299 297 295 295 294 291 287 282 277 273 270 266 262 258 254 252 251
270 271 273 277 278 276 276 277 279 283 288 291 293 294 294 294 296 300 303 304 303 299 296 295 296 296 295 295 297 298 297 294 293 293 294 297 299 299 298 299 302 304 304 306 307 305 303 304 306 308 309 308 308 308 307 304 301 299 298 298 298 296 290 283 277 273 269 266 263 261 256 252 250 249
274 275 279 280 279 281 288 290 290 293 295 295 295 295 295 296 299 303 305 305 303 298 296 295 295 294 294 294 295 296 293 290 291 292 296 300 300 300 301 305 307 308 310 314 313 307 304 306 307 307 308 307 307 307 305 302 301 301 302 301 299 295 287 277 272 268 263 261 262 260 256 251 248 247
278 279 282 283 284 290 295 295 295 298 299 298 297 297 298 299 301 304 304 303 300 298 297 296 295 294 293 292 293 292 288 286 288 292 298 303 303 304 307 309 309 309 312 316 314 306 304 305 305 306 307 306 306 305 304 302 302 303 304 302 299 293 283 272 265 261 259 259 261 261 257 251 246 244
285 281 280 283 288 293 294 295 298 299 298 295 295 296 298 299 300 301 301 299 298 297 297 297 296 296 296 294 293 290 286 283 285 291 299 304 306 307 309 310 309 309 312 315 312 304 302 303 304 306 307 306 304 304 303 303 305 306 306 304 299 290 277 265 259 258 257 258 259 259 256 250 243 240
290 286 285 288 291 293 294 296 297 295 293 293 295 296 297 298 299 299 298 298 298 297 297 297 297 297 296 296 294 290 287 286 288 295 302 307 307 308 308 308 307 306 309 311 307 301 300 301 304 307 307 306 305 306 306 307 308 309 308 305 301 288 269 261 258 257 256 254 254 255 254 248 240 234
295 293 292 293 293 293 294 295 295 294 295 296 297 298 298 298 298 298 298 298 299 299 299 299 298 297 296 295 294 292 291 292 295 300 304 305 305 304 304 304 303 303 306 307 303 300 300 302 306 309 310 308 305 306 308 309 310 311 310 307 303 288 266 262 261 256 251 249 249 251 250 246 239 233
296 295 297 299 296 294 295 297 297 297 299 299 299 299 299 299 300 300 300 301 301 301 302 302 301 300 298 295 293 291 291 293 295 298 301 302 302 302 302 302 302 303 304 304 302 299 299 303 309 311 311 308 305 306 310 312 313 314 312 308 304 292 272 266 261 249 243 246 251 251 248 245 241 235
298 299 302 300 294 294 299 301 300 300 301 301 301 300 299 299 300 300 301 302 302 303 303 302 301 299 297 295 293 293 294 295 296 298 300 301 301 301 301 302 302 303 304 303 303 301 302 308 311 310 309 307 306 309 313 316 318 317 313 309 306 296 283 273 262 248 243 247 251 250 246 244 242 237
299 299 299 295 293 297 301 302 302 302 303 303 302 300 300 299 300 301 302 302 303 304 305 305 303 301 300 300 299 299 299 299 299 300 301 301 302 302 303 303 303 303 303 303 304 305 307 311 312 310 309 309 310 314 318 320 321 319 314 310 306 296 286 277 265 255 251 250 248 246 245 245 243 239
298 297 297 298 299 301 302 302 302 303 304 303 301 300 301 301 301 302 302 302 305 307 307 307 305 304 303 303 303 303 303 302 302 302 302 303 304 304 304 305 305 306 305 306 307 307 308 310 310 311 313 316 319 322 323 323 322 320 314 310 308 303 295 284 270 259 255 251 247 247 247 247 246 241
300 300 300 301 302 301 301 302 303 304 305 304 302 301 301 302 302 303 303 305 308 309 308 306 305 305 305 305 305 305 304 303 303 302 303 305 306 307 308 309 309 309 308 307 307 308 309 311 313 315 319 324 328 328 326 323 322 319 315 312 309 307 302 289 271 260 257 254 250 249 249 246 244 241
301 300 301 300 300 300 301 302 304 306 306 304 302 300 299 299 300 302 305 308 308 308 306 305 305 305 305 305 305 304 303 302 303 304 306 308 310 312 313 313 313 312 311 309 309 311 313 315 319 322 325 329 332 330 325 322 321 318 314 310 305 303 305 301 288 275 269 263 257 256 254 247 244 242
300 299 299 298 299 301 302 304 306 306 305 304 305 305 305 303 302 303 306 310 310 308 306 306 306 307 306 305 305 303 302 303 304 306 309 312 315 318 318 318 319 320 320 318 315 316 318 319 323 327 329 332 335 331 324 323 323 318 312 308 302 299 303 305 301 295 287 277 268 264 258 250 249 247
300 299 299 299 301 303 305 307 307 306 305 307 309 309 309 309 309 309 312 315 315 312 311 309 309 308 307 306 304 302 302 304 307 309 312 316 320 323 324 325 327 325 321 320 319 319 322 323 326 329 330 334 339 336 327 326 330 327 317 309 303 299 299 303 303 297 290 283 274 267 261 254 252 251
299 299 301 302 303 306 308 307 305 304 304 304 303 302 301 302 307 310 313 316 316 313 311 310 308 307 306 305 304 303 304 308 310 312 315 319 324 328 329 331 333 329 322 321 322 322 324 326 329 330 329 334 343 344 333 330 337 339 329 314 304 299 297 300 305 303 295 285 272 262 259 255 250 248
296 298 300 300 302 304 305 302 300 300 301 300 299 300 298 300 306 310 311 313 313 311 309 307 306 306 305 304 305 305 307 311 313 314 317 322 326 328 329 331 333 333 327 322 320 322 325 327 327 329 332 337 346 351 345 338 338 342 339 326 307 297 292 293 302 308 303 290 272 258 258 261 254 246
297 297 296 296 298 301 303 302 302 303 301 300 300 298 295 298 304 306 308 310 310 308 305 304 304 305 305 305 306 308 310 313 314 315 319 323 324 326 326 327 331 334 332 325 321 323 327 327 326 330 337 341 346 351 353 349 342 339 340 338 324 306 293 285 288 296 296 292 284 264 254 258 259 250
295 294 294 292 293 297 301 303 304 302 300 302 303 300 297 299 301 301 303 306 306 304 302 302 302 304 305 306 308 310 312 314 316 317 320 322 323 324 324 324 328 332 333 331 326 324 326 328 329 331 337 342 345 349 353 354 350 341 337 337 335 324 307 288 280 283 283 286 293 282 249 245 251 247
292 293 294 292 289 293 298 300 299 298 298 299 297 292 293 297 298 298 301 304 305 304 303 302 302 304 306 307 309 311 313 316 318 319 320 322 323 322 322 323 325 329 335 339 334 326 325 328 332 334 336 341 346 349 350 353 354 350 341 335 333 330 318 298 283 277 275 279 288 287 259 250 250 242
291 293 295 293 290 293 297 299 298 298 298 296 291 289 293 296 296 298 302 305 308 308 306 304 304 305 306 308 309 312 315 317 319 319 321 322 322 321 321 321 323 328 337 341 334 326 324 327 331 332 335 341 348 350 350 350 353 355 350 338 330 326 320 305 286 272 268 274 281 274 263 261 253 237
291 293 295 295 294 294 295 297 298 299 298 294 291 292 295 296 296 300 304 307 310 310 306 305 304 304 306 308 310 314 317 319 319 320 321 321 322 321 320 319 322 330 339 340 332 326 326 328 329 329 335 343 348 348 348 348 351 354 352 343 333 325 321 313 296 273 263 268 278 274 266 264 250 236
294 297 298 297 295 294 295 297 299 298 295 292 291 293 295 293 294 300 305 307 310 309 307 305 304 304 306 309 312 315 318 318 319 320 320 320 321 321 320 319 323 331 339 341 334 328 327 330 331 329 333 341 344 343 345 347 348 351 352 349 340 330 323 316 305 285 267 266 273 273 266 263 255 243
296 298 298 297 296 296 297 299 298 297 295 294 293 295 297 297 297 301 304 306 308 308 306 304 304 305 308 312 315 317 319 320 321 321 320 321 322 322 321 321 324 332 339 339 334 328 328 332 334 332 332 338 341 342 345 348 349 350 351 351 347 339 329 319 308 294 277 268 270 272 264 257 254 248
295 295 294 294 296 297 297 297 297 297 297 297 295 296 298 299 301 304 305 306 307 307 305 304 303 306 310 313 316 319 320 322 323 323 322 323 324 324 323 322 324 331 337 336 334 332 330 333 336 336 336 339 341 343 346 349 350 351 352 353 351 347 339 325 309 299 292 281 275 277 273 261 252 246
291 291 293 297 302 303 302 301 299 299 300 300 301 303 305 303 303 304 304 305 305 304 303 302 301 304 310 314 318 321 322 323 325 325 325 325 327 327 326 324 327 332 333 335 340 340 334 332 332 332 333 336 339 343 347 350 351 352 354 355 354 353 350 341 319 301 300 301 294 289 285 274 260 246
292 293 296 301 305 304 302 300 299 300 303 304 307 310 310 307 305 303 301 300 300 299 299 299 299 304 310 315 319 321 322 323 326 327 328 329 330 331 330 327 329 331 332 336 343 344 336 332 331 330 331 334 338 344 349 350 352 353 353 354 358 360 358 354 344 320 307 311 310 303 294 282 267 248
Height
3184 3183 3183 3182 3181 3180 3180 3180 3180 3180 3180 3179 3179 3178 3178 3177 3175 3174 3173 3173 3173 3172 3171 3171 3170 3168 3167 3167 3165 3164 3164 3163 3162 3162 3161 3160 3159 3158 3158 3158 3157 3156 3155 3154 3154 3154 3153 3153 3152 3152 3151 3151 3151 3151 3151 3151 3151 3151 3152 3153 3153 3154 3155 3156 3157 3158 3159 3160 3161 3162 3163 3164 3166 3168
3182 3182 3181 3180 3180 3179 3178 3178 3178 3178 3178 3178 3177 3176 3176 3175 3174 3173 3172 3171 3171 3170 3169 3169 3168 3166 3165 3165 3164 3163 3161 3160 3160 3160 3159 3158 3157 3156 3155 3154 3154 3153 3152 3151 3150 3150 3149 3149 3148 3148 3147 3146 3146 3146 3146 3146 3147 3147 3147 3148 3149 3149 3150 3151 3152 3152 3153 3154 3155 3157 3158 3159 3160 3162
3180 3180 3180 3179 3178 3177 3176 3176 3176 3176 3176 3175 3175 3175 3174 3173 3173 3172 3170 3170 3170 3168 3167 3167 3166 3165 3163 3162 3161 3161 3159 3157 3157 3157 3156 3155 3154 3153 3152 3151 3151 3150 3149 3148 3147 3146 3145 3144 3144 3143 3143 3142 3142 3142 3142 3142 3142 3142 3142 3143 3144 3144 3145 3145 3146 3147 3148 3149 3150 3151 3152 3153 3155 3157
3178 3178 3178 3177 3177 3176 3175 3175 3174 3174 3173 3173 3173 3172 3172 3172 3171 3170 3169 3168 3169 3168 3166 3164 3163 3162 3161 3160 3159 3158 3157 3156 3154 3153 3152 3152 3151 3150 3149 3148 3147 3146 3145 3144 3143 3142 3141 3140 3140 3139 3139 3138 3138 3137 3137 3137 3137 3137 3137 3137 3138 3138 3139 3140 3141 3142 3143 3144 3145 3146 3147 3148 3149 3151
3176 3176 3176 3176 3175 3174 3174 3173 3173 3172 3172 3171 3170 3170 3170 3170 3169 3168 3168 3167 3167 3166 3165 3164 3162 3161 3159 3158 3156 3154 3153 3153 3151 3150 3149 3148 3146 3145 3145 3144 3143 3142 3141 3141 3140 3139 3138 3137 3136 3136 3135 3135 3134 3133 3133 3133 3132 3132 3132 3132 3132 3133 3133 3134 3135 3136 3137 3139 3140 3141 3142 3143 3144 3145
3174 3174 3174 3174 3173 3173 3172 3172 3171 3170 3170 3169 3168 3168 3168 3167 3166 3165 3165 3164 3163 3163 3163 3162 3161 3160 3158 3156 3154 3152 3150 3149 3148 3146 3145 3144 3143 3141 3140 3139 3139 3137 3136 3136 3135 3134 3134 3134 3133 3132 3131 3131 3130 3129 3129 3128 3128 3128 3127 3127 3127 3127 3128 3128 3129 3130 3131 3132 3134 3135 3136 3137 3139 3140
3172 3172 3172 3171 3171 3171 3170 3170 3170 3169 3168 3167 3167 3166 3166 3165 3164 3163 3162 3161 3160 3159 3159 3159 3158 3158 3157 3154 3152 3150 3148 3146 3145 3143 3142 3141 3139 3138 3137 3136 3135 3133 3132 3131 3130 3130 3130 3130 3129 3128 3127 3126 3125 3124 3124 3124 3124 3124 3123 3122 3122 3122 3122 3123 3123 3124 3125 3126 3128 3129 3130 3131 3133 3134
3170 3170 3169 3169 3169 3169 3169 3168 3168 3167 3166 3165 3164 3164 3163 3162 3161 3161 3159 3158 3157 3156 3155 3155 3154 3154 3153 3151 3149 3147 3145 3143 3142 3140 3139 3137 3136 3135 3134 3132 3131 3129 3128 3127 3126 3125 3125 3124 3124 3123 3122 3121 3120 3119 3119 3118 3118 3118 3118 3117 3117 3117 3117 3117 3117 3118 3119 3120 3122 3123 3124 3125 3126 3128
3167 3167 3167 3167 3167 3167 3167 3166 3166 3165 3164 3163 3162 3161 3160 3159 3158 3158 3157 3156 3155 3153 3152 3151 3151 3150 3148 3147 3146 3144 3142 3140 3139 3137 3136 3134 3132 3131 3130 3129 3128 3126 3124 3123 3122 3121 3120 3119 3118 3118 3117 3116 3115 3114 3114 3113 3112 3112 3112 3112 3112 3112 3112 3112 3112 3112 3113 3113 3115 3116 3117 3118 3119 3121
3164 3165 3164 3164 3164 3164 3164 3164 3163 3162 3162 3160 3159 3159 3158 3157 3156 3155 3154 3153 3151 3150 3149 3148 3147 3146 3145 3143 3142 3141 3138 3136 3134 3134 3132 3131 3130 3128 3126 3125 3124 3123 3121 3119 3118 3117 3116 3115 3113 3112 3111 3110 3109 3108 3107 3107 3106 3106 3106 3106 3106 3106 3106 3106 3107 3107 3107 3107 3107 3108 3110 3111 3112 3114
3162 3162 3162 3161 3161 3161 3161 3160 3160 3159 3159 3158 3157 3157 3156 3154 3153 3153 3152 3150 3149 3147 3146 3145 3144 3142 3141 3140 3139 3138 3135 3132 3131 3130 3128 3127 3126 3125 3123 3121 3120 3119 3117 3116 3115 3113 3112 3110 3109 3107 3106 3104 3103 3102 3101 3101 3100 3100 3100 3100 3100 3100 3100 3100 3100 3100 3100 3100 3100 3100 3101 3103 3105 3106
3159 3159 3159 3159 3158 3158 3158 3158 3158 3157 3156 3156 3155 3154 3153 3151 3151 3150 3149 3148 3147 3145 3143 3142 3140 3138 3136 3135 3134 3133 3132 3129 3128 3127 3124 3122 3121 3121 3119 3117 3116 3115 3113 3112 3110 3109 3107 3105 3104 3103 3101 3099 3098 3097 3096 3095 3095 3094 3094 3094 3094 3093 3093 3093 3093 3093 3093 3092 3092 3092 3093 3095 3097 3099
3155 3155 3155 3156 3155 3155 3156 3155 3155 3154 3154 3153 3152 3151 3150 3149 3148 3147 3146 3145 3144 3142 3140 3138 3137 3135 3132 3131 3130 3129 3128 3126 3124 3123 3121 3118 3117 3116 3114 3113 3112 3111 3109 3107 3105 3103 3102 3101 3099 3098 3095 3094 3093 3091 3090 3089 3088 3088 3088 3087 3087 3087 3086 3085 3085 3085 3084 3084 3084 3084 3085 3086 3088 3091
3152 3152 3152 3152 3152 3153 3153 3152 3151 3151 3150 3150 3149 3148 3147 3146 3144 3144 3142 3141 3140 3138 3136 3135 3133 3131 3129 3127 3126 3124 3124 3123 3121 3119 3117 3115 3113 3111 3109 3108 3108 3108 3105 3103 3100 3098 3098 3097 3095 3093 3090 3088 3087 3086 3085 3084 3083 3082 3082 3082 3081 3080 3079 3078 3076 3075 3075 3075 3076 3076 3076 3077 3079 3082
3148 3148 3148 3149 3149 3150 3149 3148 3148 3148 3147 3147 3146 3144 3143 3142 3140 3139 3138 3137 3136 3134 3132 3130 3128 3126 3124 3124 3122 3121 3120 3119 3117 3115 3113 3111 3109 3107 3104 3102 3103 3103 3102 3099 3095 3093 3093 3092 3089 3087 3085 3084 3083 3081 3079 3078 3078 3077 3076 3076 3075 3073 3072 3070 3068 3066 3065 3065 3066 3067 3068 3069 3070 3073
3144 3145 3145 3145 3145 3146 3146 3145 3145 3144 3144 3143 3142 3140 3139 3138 3137 3136 3134 3133 3131 3130 3128 3126 3124 3122 3121 3119 3119 3117 3116 3114 3113 3111 3109 3107 3105 3103 3101 3098 3097 3098 3097 3094 3090 3088 3088 3087 3083 3081 3080 3079 3077 3075 3073 3073 3072 3071 3070 3069 3068 3067 3065 3063 3060 3057 3055 3055 3055 3057 3059 3060 3061 3064
3141 3141 3142 3142 3141 3141 3142 3142 3141 3140 3139 3139 3137 3136 3135 3134 3133 3132 3131 3129 3127 3125 3122 3121 3119 3118 3117 3115 3114 3114 3112 3110 3108 3106 3104 3103 3101 3098 3096 3094 3092 3092 3092 3089 3085 3082 3082 3081 3077 3075 3074 3073 3070 3068 3068 3067 3066 3065 3064 3062 3061 3059 3057 3055 3052 3048 3046 3044 3045 3047 3049 3051 3053 3055
3137 3138 3138 3138 3138 3137 3137 3138 3137 3136 3135 3134 3133 3132 3131 3130 3129 3128 3127 3125 3122 3120 3118 3116 3115 3114 3112 3110 3109 3109 3108 3105 3103 3101 3099 3098 3096 3094 3092 3089 3088 3087 3087 3085 3081 3077 3076 3075 3071 3069 3068 3066 3064 3063 3062 3061 3059 3058 3056 3055 3053 3050 3048 3045 3042 3038 3036 3035 3035 3037 3039 3042 3044 3046
3133 3134 3134 3134 3133 3132 3132 3133 3133 3132 3130 3129 3129 3127 3126 3125 3124 3123 3122 3120 3117 3115 3113 3111 3110 3109 3108 3106 3104 3103 3102 3100 3098 3097 3094 3093 3091 3088 3086 3084 3083 3083 3083 3081 3077 3072 3069 3068 3064 3062 3062 3059 3057 3057 3055 3054 3053 3051 3049 3047 3044 3041 3038 3035 3031 3028 3026 3026 3026 3027 3030 3032 3035 3038
3130 3130 3131 3130 3129 3129 3129 3130 3130 3128 3127 3126 3124 3123 3121 3120 3118 3117 3116 3114 3113 3111 3109 3107 3106 3105 3103 3102 3100 3098 3096 3094 3093 3091 3090 3088 3086 3083 3080 3079 3078 3078 3077 3076 3073 3066 3062 3061 3058 3056 3055 3053 3051 3050 3049 3047 3046 3044 3042 3039 3035 3032 3028 3024 3021 3018 3017 3017 3017 3018 3021 3023 3026 3029
3127 3127 3128 3127 3126 3126 3126 3127 3126 3125 3124 3122 3120 3118 3116 3115 3113 3111 3110 3110 3108 3106 3105 3103 3102 3101 3099 3097 3096 3094 3092 3090 3088 3086 3085 3085 3082 3078 3076 3074 3073 3072 3071 3071 3068 3062 3057 3056 3053 3050 3049 3047 3045 3044 3043 3041 3040 3037 3034 3030 3026 3022 3018 3014 3011 3010 3009 3009 3009 3010 3012 3015 3017 3021
3123 3123 3123 3124 3124 3123 3123 3123 3122 3121 3119 3118 3116 3114 3112 3110 3109 3108 3107 3106 3104 3102 3099 3098 3097 3096 3095 3094 3092 3090 3089 3087 3085 3083 3081 3080 3077 3074 3072 3070 3067 3066 3066 3066 3063 3057 3052 3051 3049 3045 3043 3040 3039 3039 3037 3035 3033 3030 3026 3022 3017 3013 3009 3005 3003 3003 3003 3003 3003 3004 3005 3007 3009 3012
3120 3119 3120 3121 3121 3120 3119 3118 3117 3116 3115 3114 3112 3111 3109 3107 3105 3104 3102 3101 3100 3097 3095 3093 3091 3090 3089 3088 3087 3085 3085 3084 3082 3080 3078 3076 3073 3070 3068 3066 3063 3060 3060 3062 3059 3052 3048 3046 3045 3042 3038 3032 3032 3033 3031 3028 3026 3023 3019 3013 3008 3005 3002 2998 2997 2997 2997 2997 2997 2997 2998 3000 3001 3003
3117 3116 3117 3118 3117 3116 3115 3113 3112 3112 3111 3110 3108 3107 3105 3103 3102 3100 3098 3096 3094 3093 3091 3089 3087 3085 3084 3082 3081 3080 3079 3079 3077 3075 3073 3072 3069 3066 3064 3062 3059 3056 3056 3057 3054 3048 3044 3042 3040 3039 3036 3028 3024 3025 3024 3022 3019 3015 3011 3004 2999 2997 2995 2992 2990 2990 2990 2991 2991 2991 2992 2993 2995 2996
3114 3113 3114 3114 3114 3112 3111 3110 3109 3109 3108 3106 3104 3102 3100 3098 3096 3095 3093 3091 3089 3088 3086 3084 3082 3081 3079 3077 3076 3075 3075 3074 3073 3071 3070 3068 3066 3064 3061 3058 3055 3053 3052 3053 3050 3043 3039 3038 3036 3034 3032 3027 3022 3019 3017 3016 3013 3009 3003 2996 2992 2989 2988 2985 2984 2984 2984 2984 2985 2985 2986 2987 2988 2989
3111 3110 3109 3109 3109 3108 3107 3107 3106 3105 3104 3102 3099 3097 3095 3093 3091 3089 3087 3086 3084 3082 3081 3079 3077 3076 3075 3073 3072 3072 3071 3070 3069 3067 3066 3065 3062 3060 3058 3054 3051 3049 3048 3047 3045 3040 3035 3034 3033 3030 3026 3023 3019 3015 3011 3008 3005 3000 2995 2990 2986 2984 2982 2980 2978 2978 2979 2978 2979 2980 2981 2982 2982 2983
3107 3105 3105 3105 3105 3104 3104 3103 3102 3101 3099 3097 3094 3092 3090 3088 3086 3084 3083 3081 3079 3077 3076 3074 3073 3072 3070 3069 3069 3068 3067 3066 3064 3063 3062 3060 3058 3055 3053 3051 3048 3045 3043 3041 3040 3036 3033 3031 3030 3027 3023 3019 3015 3010 3005 3001 2996 2991 2987 2984 2982 2980 2977 2975 2973 2973 2974 2974 2974 2975 2976 2976 2977 2978
3104 3103 3103 3102 3102 3101 3100 3099 3098 3096 3094 3092 3090 3088 3086 3084 3082 3080 3079 3077 3075 3073 3071 3070 3069 3068 3066 3065 3065 3064 3063 3062 3060 3059 3057 3056 3054 3051 3049 3047 3045 3042 3040 3037 3035 3033 3030 3028 3027 3024 3021 3017 3012 3006 3000 2994 2989 2985 2981 2978 2977 2976 2973 2971 2969 2970 2970 2970 2970 2971 2971 2972 2973 2974
3101 3100 3099 3099 3098 3097 3095 3094 3093 3092 3090 3089 3086 3084 3082 3080 3078 3077 3075 3073 3071 3070 3068 3067 3065 3064 3063 3062 3061 3060 3059 3058 3056 3055 3053 3052 3050 3047 3044 3043 3041 3039 3036 3034 3032 3031 3028 3026 3024 3021 3018 3014 3009 3002 2995 2988 2984 2981 2977 2974 2972 2971 2970 2968 2967 2967 2967 2966 2967 2967 2967 2967 2969 2969
3098 3097 3096 3094 3093 3093 3092 3091 3089 3087 3086 3085 3082 3080 3079 3076 3075 3073 3071 3069 3068 3067 3065 3064 3063 3061 3060 3059 3058 3057 3055 3054 3053 3051 3049 3048 3046 3043 3041 3039 3037 3035 3034 3031 3030 3028 3026 3024 3021 3018 3014 3010 3005 2999 2992 2985 2980 2977 2974 2971 2968 2966 2966 2966 2964 2964 2964 2963 2963 2963 2963 2963 2964 2965
3095 3094 3093 3091 3091 3090 3088 3087 3085 3083 3082 3080 3079 3077 3075 3073 3071 3070 3068 3066 3065 3064 3063 3061 3060 3059 3057 3056 3055 3054 3052 3051 3049 3048 3046 3044 3042 3040 3037 3035 3034 3032 3031 3030 3028 3026 3024 3022 3019 3015 3011 3007 3001 2995 2990 2984 2978 2974 2971 2968 2965 2963 2963 2962 2961 2961 2960 2960 2960 2960 2959 2960 2960 2961
3092 3091 3090 3089 3088 3087 3085 3084 3082 3079 3077 3076 3074 3072 3071 3069 3068 3066 3065 3063 3062 3061 3060 3059 3057 3056 3055 3053 3052 3051 3049 3048 3046 3044 3042 3041 3039 3037 3035 3032 3030 3028 3027 3026 3025 3023 3021 3019 3016 3013 3009 3005 2999 2992 2987 2982 2977 2972 2968 2965 2962 2961 2960 2959 2958 2958 2958 2957 2957 2957 2956 2956 2957 2959
3089 3089 3088 3087 3085 3084 3082 3080 3078 3076 3073 3071 3070 3068 3067 3066 3064 3063 3062 3061 3059 3058 3057 3056 3054 3053 3052 3051 3050 3048 3047 3045 3043 3042 3040 3038 3036 3034 3032 3030 3027 3026 3024 3023 3022 3020 3018 3016 3014 3011 3008 3004 2998 2991 2984 2979 2975 2971 2966 2962 2960 2958 2958 2957 2956 2955 2955 2954 2954 2954 2954 2954 2955 2956
3086 3085 3085 3084 3082 3080 3079 3077 3075 3073 3071 3069 3068 3066 3065 3063 3062 3061 3059 3058 3057 3056 3055 3053 3052 3051 3050 3048 3047 3046 3044 3043 3041 3039 3037 3035 3033 3031 3029 3027 3025 3023 3022 3020 3018 3017 3015 3013 3011 3008 3006 3003 2999 2992 2985 2978 2973 2968 2964 2961 2958 2956 2955 2955 2954 2953 2952 2952 2951 2951 2952 2952 2953 2954
3084 3082 3082 3081 3079 3078 3076 3075 3073 3071 3069 3067 3066 3064 3063 3061 3060 3059 3058 3057 3055 3054 3052 3051 3050 3048 3047 3046 3045 3043 3042 3040 3038 3037 3035 3033 3031 3030 3028 3025 3023 3021 3019 3017 3016 3014 3012 3009 3007 3004 3001 2998 2995 2991 2985 2978 2971 2966 2962 2959 2956 2954 2953 2952 2952 2951 2950 2949 2949 2949 2950 2950 2951 2952
3080 3080 3079 3077 3076 3074 3073 3071 3069 3068 3066 3064 3063 3063 3062 3060 3058 3057 3056 3055 3053 3052 3050 3049 3047 3046 3045 3043 3042 3041 3039 3038 3036 3035 3033 3032 3030 3028 3026 3024 3022 3020 3017 3016 3014 3011 3009 3007 3004 3000 2996 2993 2989 2986 2982 2977 2971 2964 2960 2957 2955 2952 2951 2950 2950 2950 2948 2947 2947 2948 2949 2949 2950 2950
3077 3076 3075 3073 3072 3071 3069 3068 3066 3064 3063 3062 3061 3060 3058 3057 3056 3055 3053 3053 3051 3049 3048 3046 3045 3044 3042 3041 3040 3038 3037 3036 3034 3033 3031 3030 3028 3026 3024 3022 3020 3018 3016 3014 3012 3010 3007 3005 3002 2998 2994 2990 2986 2982 2979 2976 2971 2964 2959 2955 2952 2950 2949 2948 2948 2948 2947 2947 2947 2947 2947 2947 2948 2948
3074 3073 3071 3070 3068 3067 3066 3065 3064 3062 3060 3059 3059 3058 3056 3054 3054 3052 3051 3050 3049 3047 3045 3044 3042 3041 3040 3039 3037 3036 3035 3034 3032 3031 3029 3028 3026 3024 3022 3020 3018 3016 3014 3012 3011 3008 3005 3003 3000 2997 2993 2990 2985 2981 2976 2973 2969 2964 2958 2954 2950 2949 2947 2945 2945 2945 2945 2945 2945 2945 2944 2944 2945 2946
3070 3070 3069 3067 3066 3064 3062 3061 3060 3059 3058 3057 3056 3054 3052 3051 3051 3049 3048 3047 3046 3044 3043 3041 3040 3039 3038 3037 3035 3034 3033 3032 3030 3029 3027 3026 3024 3022 3020 3018 3016 3014 3012 3011 3009 3007 3004 3002 2999 2996 2993 2990 2985 2981 2976 2972 2968 2964 2959 2953 2949 2947 2945 2943 2942 2942 2942 2942 2942 2943 2942 2941 2941 2943
3066 3066 3065 3064 3062 3060 3059 3058 3057 3056 3055 3054 3052 3051 3049 3048 3048 3046 3045 3044 3043 3042 3040 3039 3038 3037 3036 3035 3034 3032 3031 3030 3028 3027 3025 3024 3022 3020 3018 3016 3014 3012 3011 3009 3008 3005 3003 3000 2998 2995 2992 2989 2985 2982 2979 2975 2970 2966 2961 2956 2950 2946 2944 2942 2939 2939 2939 2940 2940 2940 2940 2939 2939 2940
3061 3061 3060 3059 3059 3057 3056 3054 3053 3052 3051 3050 3049 3048 3047 3046 3045 3044 3043 3041 3040 3039 3038 3037 3036 3035 3034 3033 3032 3031 3029 3028 3027 3025 3023 3021 3020 3018 3016 3014 3013 3011 3009 3008 3006 3004 3001 2999 2997 2994 2991 2988 2986 2982 2978 2974 2969 2965 2961 2957 2952 2946 2943 2940 2938 2937 2937 2937 2937 2937 2938 2938 2938 2938
3058 3057 3056 3055 3055 3054 3053 3052 3050 3049 3048 3047 3046 3044 3043 3042 3041 3041 3040 3039 3038 3037 3036 3035 3034 3033 3032 3031 3030 3029 3027 3026 3025 3023 3021 3019 3018 3016 3014 3013 3011 3010 3008 3006 3005 3002 3000 2998 2996 2993 2990 2988 2985 2981 2977 2972 2968 2964 2960 2956 2952 2947 2943 2939 2936 2935 2935 2935 2935 2935 2935 2935 2935 2936
3055 3054 3054 3053 3052 3051 3050 3049 3048 3046 3045 3044 3043 3042 3040 3039 3038 3037 3037 3036 3035 3035 3034 3033 3032 3031 3031 3030 3028 3027 3025 3024 3023 3021 3020 3018 3016 3014 3013 3011 3010 3008 3006 3005 3004 3002 2999 2997 2995 2992 2989 2987 2984 2980 2977 2973 2968 2964 2959 2955 2951 2947 2943 2939 2935 2933 2932 2932 2932 2932 2932 2932 2933 2933
3052 3051 3051 3050 3048 3047 3046 3045 3045 3044 3043 3042 3040 3039 3038 3037 3036 3035 3034 3034 3033 3032 3032 3031 3031 3030 3029 3028 3027 3025 3023 3022 3021 3019 3018 3016 3014 3013 3011 3010 3008 3007 3005 3004 3003 3001 2998 2996 2994 2992 2989 2986 2983 2980 2977 2973 2969 2964 2960 2956 2951 2946 2942 2938 2935 2932 2931 2930 2929 2930 2930 2929 2930 2931
3049 3048 3048 3047 3046 3044 3043 3042 3041 3041 3040 3039 3038 3036 3035 3034 3034 3033 3032 3032 3031 3031 3030 3030 3029 3028 3027 3026 3025 3023 3022 3021 3019 3018 3016 3015 3013 3011 3010 3008 3007 3005 3004 3002 3001 3000 2998 2996 2994 2991 2989 2986 2983 2980 2977 2973 2970 2966 2962 2957 2952 2947 2941 2937 2934 2932 2930 2929 2928 2928 2927 2927 2927 2928